星链-4366 (STARLINK-4366 )
导读
STARLINK-4366是美国SpaceX公司星链星座中的一颗卫星,于2022年7月22日发射升空,作为星链互联网星座的组成部分,它主要为全球范围内提供低延迟、高速率的宽带互联网服务,尤其服务偏远地区、海洋空域等基础设施难以覆盖的区域,是星链大规模组网部署过程中的重要节点。
Basic Information
目录编号:
53227
目录名称:
STARLINK-4366
国际标识:
2022-084AQ
轨道中心:
EARTH
卫星名称:
星链-4366
卫星全名:
星链-4366 (STARLINK-4366 )
卫星状态:
在轨 (已飞行1505 天)
发射日期:
2022-07-22 UTC
国别 :
美国
(US)
星等 :
--
Orbit Information
| 数据来源 | 国际轨道数据 |
| 星历时间: | 2026-09-04T14:00:02+0800 11小时前 查看轨道信息 |
| 半长轴: | 6872.434km |
| 偏心率: | 0.0001065 |
| 轨道倾角: | 97.283° |
| 近地点辐角 | 53.329° |
| 升交点赤经 | 303.185° |
| 平近点角 | 337.519° |
| 近地点: | 493.565km |
| 远地点: | 495.029km |
| 周期: | 94.499分钟 |
| 每日圈数: | 15.238314 |
Detailed Information
固有亮度:
5
最大亮度:
2.5
卫星平台:
Starlink v1.5
覆盖范围:
全球
运营商:
太空探索技术公司
运营商所在国:
美国
制造商(研发单位):
太空探索技术公司
制造商所在国:
美国
使用方式:
暂无
Satellite Introduction
星链(Starlink)计划是由太空探索技术公司(SpaceX)提出的一个巨型低轨卫星互联网星座项目,计划在2019年至2024年间在太空搭建由约1.2万颗卫星组成的“星链”网络,其中1584颗将部署在地球上空550千米处的近地轨道,并从2020年开始工作。该卫星仍在工作。
2D Orbit Map
3D Orbit Map
Orbit Altitude Analysis Chart
Orbit Inclination Analysis Chart
Orbit Comprehensive Analysis Chart
View Comprehensive ChartConjunction Data List
| Event ID | Objects | TCA | Miss Dist (km) | Collision Risk Probability | Collision Risk Index (CRI) | Action |
|---|---|---|---|---|---|---|
| CDM_260904-173704-116705-322721 |
KENT RIDGE 1
(41167)
STARLINK-4366
(53227) | 2026-09-04T 17:37:13+0000 |
1.920 km
极远距离 | 2.700954E-6 低风险 | 0.44 | |
| CDM_260905-071305-322705-376321 |
STARLINK-4366
(53227)
YAOGAN-35 05C
(53763) | 2026-09-05T 07:13:17+0000 |
2.840 km
极远距离 | 1.23718E-6 低风险 | 0.37 |

